Date,TemperatureHighF,TemperatureAvgF,TemperatureLowF,DewpointHighF,DewpointAvgF,DewpointLowF,HumidityHigh,HumidityAvg,HumidityLow,PressureMaxIn,PressureMinIn,WindSpeedMaxMPH,WindSpeedAvgMPH,GustSpeedMaxMPH,PrecipitationSumIn
2013-2-1,17,8,3,8,-2,-6,70,61,54,30.23,29.96,4,1,4,0.00
2013-2-2,25,14,7,8,1,-5,62,56,48,29.96,29.61,4,1,4,0.00
2013-2-3,17,12,9,5,2,-1,71,64,57,29.62,29.42,2,0,2,0.00
2013-2-4,16,12,8,7,3,-2,73,67,62,29.74,29.56,2,0,2,0.00
2013-2-5,13,6,2,6,-3,-7,72,65,61,29.73,29.68,2,0,2,0.00
2013-2-6,6,3,-1,-3,-7,-12,65,62,58,29.80,29.66,2,0,2,0.00
2013-2-7,12,5,-1,3,-5,-11,69,62,58,29.77,29.39,0,0,0,0.00
2013-2-8,9,5,2,0,-5,-9,65,63,56,29.90,29.42,0,0,0,0.00
2013-2-9,34,23,7,20,13,-3,76,65,51,29.89,29.15,6,2,6,0.00
2013-2-10,41,27,11,27,16,3,70,64,56,29.59,29.08,8,2,8,0.00
2013-2-11,22,16,9,13,8,0,73,69,64,29.80,29.58,2,0,2,0.00
2013-2-12,23,11,6,15,2,-2,73,68,62,29.87,29.80,0,0,0,0.00
2013-2-13,27,18,12,18,9,5,75,67,54,29.87,29.83,3,0,3,0.00
2013-2-14,35,26,23,10,6,3,56,45,30,29.85,29.44,8,2,8,0.00
2013-2-15,24,8,-5,13,-4,-17,67,57,48,30.10,29.54,11,2,11,0.00
2013-2-16,7,-3,-8,-10,-16,-21,55,52,44,30.16,29.94,4,1,4,0.00
2013-2-17,-1,-5,-10,-13,-18,-25,55,51,45,30.20,29.88,10,1,10,0.00
2013-2-18,1,-14,-20,-16,-30,-35,50,42,30,30.30,30.17,7,1,10,0.00
2013-2-19,4,-10,-21,-18,-28,-36,49,39,24,30.18,29.65,6,2,6,0.00
2013-2-20,8,-2,-8,-15,-21,-26,46,38,28,29.65,29.46,9,4,9,0.00
2013-2-21,2,-3,-6,-16,-20,-24,49,43,31,29.51,29.41,9,3,9,0.00
2013-2-22,0,-8,-14,-19,-23,-28,52,44,39,29.68,29.44,7,1,7,0.00
2013-2-23,11,-2,-14,-11,-20,-28,52,41,28,29.61,29.44,9,1,9,0.00
2013-2-24,3,3,3,-17,-17,-17,38,38,38,29.44,29.44,1,1,4,0.00
2013-2-25,31,11,-10,12,-5,-21,63,48,29,29.84,29.44,3,1,4,0.00
2013-2-26,33,20,10,7,2,-4,59,46,26,29.84,29.56,5,1,5,0.00
2013-2-27,42,25,18,12,4,0,52,40,21,29.57,29.42,8,2,8,0.00
2013-2-28,43,25,16,16,4,-2,51,40,19,29.57,29.47,4,1,4,0.02